LAN1498 SBGR-SGAS

Flight info

Callsign LAN1498
Flight time 1h 40m
Altitude 40000
Route ASETA UL301 DEVOS DEVOS
Aircraft A359/H-SDE2E3GHIJ3J4J5LM1ORWXY/LB1D1

Departure

Time 2026-04-18 03:01
Airport São Paulo/Guarulhos–Governor André Franco Montoro International Airport (SBGR)

Arrival

Time 2026-04-18 04:41
Airport Silvio Pettirossi International Airport (SGAS)
Time Latitude Longitude Altitude Speed Heading
2026-04-18 02:43 -23.42936 -46.48720 2475 ft 2 kts 102°
2026-04-18 02:43 -23.42932 -46.48732 2475 ft 2 kts 123°
2026-04-18 02:43 -23.42925 -46.48742 2475 ft 2 kts 142°
2026-04-18 02:43 -23.42916 -46.48749 2477 ft 1 kts 157°
2026-04-18 02:44 -23.42909 -46.48752 2474 ft 1 kts 165°
2026-04-18 02:44 -23.42906 -46.48753 2474 ft 1 kts 168°
2026-04-18 02:44 -23.42900 -46.48754 2474 ft 1 kts 174°
2026-04-18 02:44 -23.42895 -46.48754 2475 ft 1 kts 183°
2026-04-18 02:45 -23.42893 -46.48755 2475 ft 0 kts 193°
2026-04-18 02:55 -23.42934 -46.48760 2474 ft 15 kts 187°
2026-04-18 02:55 -23.43090 -46.48775 2477 ft 30 kts 185°
2026-04-18 02:56 -23.43164 -46.48707 2475 ft 14 kts 106°
2026-04-18 02:56 -23.43179 -46.48596 2475 ft 15 kts 95°
2026-04-18 02:56 -23.43236 -46.48392 2475 ft 4 kts 150°
2026-04-18 02:57 -23.43273 -46.48376 2477 ft 6 kts 158°
2026-04-18 02:57 -23.43277 -46.48375 2476 ft 0 kts 162°
2026-04-18 03:00 -23.43278 -46.48374 2475 ft 1 kts 162°
2026-04-18 03:00 -23.43319 -46.48359 2476 ft 11 kts 161°
2026-04-18 03:00 -23.43396 -46.48295 2476 ft 17 kts 110°
2026-04-18 03:00 -23.43378 -46.48138 2476 ft 39 kts 73°
2026-04-18 03:01 -23.43230 -46.47607 2475 ft 106 kts 74°
2026-04-18 03:01 -23.42965 -46.46638 2500 ft 157 kts 72°
2026-04-18 03:01 -23.42646 -46.45575 3266 ft 144 kts 71°
2026-04-18 03:01 -23.42379 -46.44527 3826 ft 142 kts 74°
2026-04-18 03:02 -23.42179 -46.43478 4248 ft 147 kts 77°
2026-04-18 03:02 -23.41936 -46.42348 4415 ft 160 kts 71°
2026-04-18 03:02 -23.41540 -46.41184 4673 ft 169 kts 65°
2026-04-18 03:02 -23.41056 -46.39976 4975 ft 177 kts 63°
2026-04-18 03:03 -23.40511 -46.38771 5409 ft 177 kts 59°
2026-04-18 03:03 -23.39959 -46.37548 5738 ft 187 kts 69°
2026-04-18 03:03 -23.39809 -46.36091 5954 ft 202 kts 96°
2026-04-18 03:03 -23.40271 -46.34594 6183 ft 218 kts 121°
2026-04-18 03:04 -23.41010 -46.33085 6404 ft 236 kts 116°
2026-04-18 03:04 -23.41652 -46.31378 6697 ft 251 kts 110°
2026-04-18 03:04 -23.42224 -46.29528 6956 ft 267 kts 109°
2026-04-18 03:04 -23.42863 -46.27566 7235 ft 281 kts 114°
2026-04-18 03:05 -23.44024 -46.25847 7666 ft 284 kts 144°
2026-04-18 03:05 -23.45813 -46.25028 8192 ft 281 kts 176°
2026-04-18 03:05 -23.47736 -46.25168 8798 ft 279 kts 192°
2026-04-18 03:05 -23.49644 -46.25565 9450 ft 279 kts 193°
2026-04-18 03:06 -23.51527 -46.25971 10045 ft 281 kts 193°
2026-04-18 03:06 -23.53450 -46.26507 10362 ft 292 kts 202°
2026-04-18 03:06 -23.55184 -46.27713 10589 ft 304 kts 225°
2026-04-18 03:06 -23.56341 -46.29690 10833 ft 317 kts 250°
2026-04-18 03:07 -23.56902 -46.32031 11075 ft 328 kts 257°
2026-04-18 03:07 -23.57370 -46.34523 11305 ft 340 kts 257°
2026-04-18 03:07 -23.57851 -46.37066 11597 ft 347 kts 257°
2026-04-18 03:07 -23.58352 -46.39666 12000 ft 351 kts 257°
2026-04-18 03:08 -23.58864 -46.42291 12398 ft 354 kts 257°
2026-04-18 03:08 -23.59381 -46.44935 12823 ft 357 kts 257°
2026-04-18 03:08 -23.59905 -46.47593 13245 ft 360 kts 257°
2026-04-18 03:08 -23.60434 -46.50268 13668 ft 362 kts 257°
2026-04-18 03:09 -23.60960 -46.52943 14032 ft 365 kts 258°
2026-04-18 03:09 -23.61396 -46.55701 14416 ft 366 kts 261°
2026-04-18 03:09 -23.61771 -46.58425 14798 ft 368 kts 261°
2026-04-18 03:09 -23.62160 -46.61222 15185 ft 370 kts 261°
2026-04-18 03:10 -23.62592 -46.63983 15549 ft 372 kts 257°
2026-04-18 03:10 -23.63470 -46.66605 15943 ft 373 kts 242°
2026-04-18 03:10 -23.64810 -46.69069 16305 ft 376 kts 238°
2026-04-18 03:10 -23.66234 -46.71496 16679 ft 378 kts 238°
2026-04-18 03:11 -23.67631 -46.73878 17069 ft 379 kts 238°
2026-04-18 03:11 -23.69056 -46.76317 17429 ft 381 kts 238°
2026-04-18 03:11 -23.70482 -46.78755 17783 ft 383 kts 240°
2026-04-18 03:11 -23.71338 -46.81500 18115 ft 385 kts 262°
2026-04-18 03:12 -23.71231 -46.84405 18432 ft 388 kts 281°
2026-04-18 03:12 -23.70229 -46.87163 18750 ft 393 kts 296°
2026-04-18 03:12 -23.68828 -46.89741 19029 ft 395 kts 299°
2026-04-18 03:12 -23.67418 -46.92316 19357 ft 396 kts 297°
2026-04-18 03:13 -23.66146 -46.94952 19649 ft 398 kts 294°
2026-04-18 03:13 -23.64999 -46.97737 19942 ft 399 kts 290°
2026-04-18 03:13 -23.63984 -47.00556 20271 ft 400 kts 288°
2026-04-18 03:13 -23.63040 -47.03415 20601 ft 401 kts 287°
2026-04-18 03:14 -23.62132 -47.06283 20920 ft 402 kts 287°
2026-04-18 03:14 -23.61227 -47.09177 21227 ft 404 kts 287°
2026-04-18 03:14 -23.60315 -47.12084 21532 ft 405 kts 287°
2026-04-18 03:14 -23.59396 -47.14987 21844 ft 407 kts 287°
2026-04-18 03:15 -23.58461 -47.17914 22145 ft 408 kts 287°
2026-04-18 03:15 -23.57523 -47.20834 22448 ft 409 kts 287°
2026-04-18 03:15 -23.56576 -47.23769 22748 ft 411 kts 287°
2026-04-18 03:15 -23.55637 -47.26675 23037 ft 413 kts 287°
2026-04-18 03:16 -23.54670 -47.29663 23326 ft 414 kts 287°
2026-04-18 03:16 -23.53722 -47.32591 23586 ft 416 kts 287°
2026-04-18 03:16 -23.52757 -47.35570 23809 ft 417 kts 287°
2026-04-18 03:16 -23.51792 -47.38550 24056 ft 418 kts 287°
2026-04-18 03:17 -23.50820 -47.41546 24304 ft 419 kts 287°
2026-04-18 03:17 -23.49847 -47.44545 24536 ft 421 kts 287°
2026-04-18 03:17 -23.48867 -47.47565 24778 ft 422 kts 287°
2026-04-18 03:17 -23.47872 -47.50626 25049 ft 423 kts 287°
2026-04-18 03:18 -23.46905 -47.53603 25301 ft 424 kts 287°
2026-04-18 03:18 -23.45915 -47.56644 25547 ft 425 kts 287°
2026-04-18 03:18 -23.44926 -47.59683 25796 ft 427 kts 287°
2026-04-18 03:18 -23.43935 -47.62726 26042 ft 428 kts 287°
2026-04-18 03:19 -23.42936 -47.65790 26287 ft 429 kts 287°
2026-04-18 03:19 -23.41933 -47.68863 26587 ft 430 kts 287°
2026-04-18 03:19 -23.40931 -47.71930 26858 ft 431 kts 287°
2026-04-18 03:19 -23.39922 -47.75015 27122 ft 433 kts 287°
2026-04-18 03:20 -23.38912 -47.78103 27403 ft 434 kts 287°
2026-04-18 03:20 -23.37898 -47.81204 27688 ft 435 kts 287°
2026-04-18 03:20 -23.36878 -47.84318 27931 ft 438 kts 287°
2026-04-18 03:20 -23.35858 -47.87433 28227 ft 439 kts 287°
2026-04-18 03:21 -23.34829 -47.90571 28548 ft 441 kts 287°
2026-04-18 03:21 -23.33792 -47.93728 28848 ft 442 kts 287°
2026-04-18 03:21 -23.32756 -47.96880 29153 ft 444 kts 287°
2026-04-18 03:21 -23.31727 -48.00009 29452 ft 446 kts 287°
2026-04-18 03:22 -23.30684 -48.03185 29811 ft 446 kts 287°
2026-04-18 03:22 -23.29809 -48.06421 30068 ft 447 kts 281°
2026-04-18 03:22 -23.29313 -48.09789 30375 ft 446 kts 274°
2026-04-18 03:22 -23.29251 -48.13112 30701 ft 445 kts 266°
2026-04-18 03:23 -23.29572 -48.16453 31040 ft 444 kts 262°
2026-04-18 03:23 -23.30017 -48.19795 31361 ft 445 kts 261°
2026-04-18 03:23 -23.30507 -48.23116 31656 ft 446 kts 261°
2026-04-18 03:23 -23.31017 -48.26456 31907 ft 448 kts 261°
2026-04-18 03:24 -23.31528 -48.29803 32172 ft 449 kts 261°
2026-04-18 03:24 -23.32034 -48.33153 32464 ft 449 kts 261°
2026-04-18 03:24 -23.32532 -48.36500 32755 ft 449 kts 261°
2026-04-18 03:24 -23.33045 -48.39866 33021 ft 450 kts 259°
2026-04-18 03:25 -23.33791 -48.43166 33321 ft 450 kts 255°
2026-04-18 03:25 -23.34656 -48.46440 33685 ft 449 kts 255°
2026-04-18 03:25 -23.35543 -48.49685 34053 ft 447 kts 254°
2026-04-18 03:25 -23.36442 -48.52918 34389 ft 445 kts 254°
2026-04-18 03:26 -23.37340 -48.56130 34724 ft 443 kts 254°
2026-04-18 03:26 -23.38239 -48.59343 35072 ft 441 kts 254°
2026-04-18 03:26 -23.39131 -48.62537 35401 ft 440 kts 254°
2026-04-18 03:26 -23.40014 -48.65708 35759 ft 438 kts 254°
2026-04-18 03:27 -23.40884 -48.68842 36032 ft 438 kts 254°
2026-04-18 03:27 -23.41763 -48.72014 36356 ft 437 kts 254°
2026-04-18 03:27 -23.42637 -48.75174 36700 ft 435 kts 254°
2026-04-18 03:27 -23.43503 -48.78306 37041 ft 433 kts 254°
2026-04-18 03:28 -23.44370 -48.81443 37410 ft 431 kts 254°
2026-04-18 03:28 -23.45233 -48.84570 37748 ft 429 kts 255°
2026-04-18 03:28 -23.46090 -48.87676 38089 ft 428 kts 255°
2026-04-18 03:28 -23.46944 -48.90776 38412 ft 426 kts 255°
2026-04-18 03:29 -23.47519 -48.92865 38627 ft 425 kts 255°
2026-04-18 03:29 -23.48364 -48.95936 38845 ft 425 kts 255°
2026-04-18 03:29 -23.49490 -49.00032 39110 ft 425 kts 255°
2026-04-18 03:29 -23.50059 -49.02104 39260 ft 424 kts 255°
2026-04-18 03:30 -23.50896 -49.05155 39457 ft 424 kts 255°
2026-04-18 03:30 -23.51739 -49.08228 39677 ft 423 kts 255°
2026-04-18 03:30 -23.52580 -49.11299 39819 ft 424 kts 255°
2026-04-18 03:30 -23.53428 -49.14399 39894 ft 427 kts 255°
2026-04-18 03:31 -23.55138 -49.20652 39899 ft 434 kts 255°
2026-04-18 03:31 -23.56872 -49.27004 39897 ft 439 kts 255°
2026-04-18 03:32 -23.58616 -49.33400 39898 ft 441 kts 254°
2026-04-18 03:32 -23.60365 -49.39829 39898 ft 443 kts 255°
2026-04-18 03:33 -23.62110 -49.46253 39897 ft 443 kts 255°
2026-04-18 03:33 -23.63861 -49.52709 39898 ft 443 kts 254°
2026-04-18 03:34 -23.65593 -49.59138 39897 ft 444 kts 254°
2026-04-18 03:34 -23.67341 -49.65650 39897 ft 445 kts 254°
2026-04-18 03:35 -23.69068 -49.72088 39900 ft 445 kts 254°
2026-04-18 03:35 -23.70804 -49.78567 39901 ft 445 kts 254°
2026-04-18 03:36 -23.72543 -49.85069 39900 ft 446 kts 254°
2026-04-18 03:36 -23.74275 -49.91554 39901 ft 446 kts 254°
2026-04-18 03:37 -23.76009 -49.98062 39904 ft 446 kts 254°
2026-04-18 03:37 -23.77741 -50.04571 39903 ft 447 kts 254°
2026-04-18 03:38 -23.79473 -50.11097 39904 ft 447 kts 254°
2026-04-18 03:38 -23.81203 -50.17608 39909 ft 447 kts 254°
2026-04-18 03:39 -23.82914 -50.24093 39913 ft 448 kts 254°
2026-04-18 03:39 -23.84638 -50.30637 39913 ft 448 kts 254°
2026-04-18 03:40 -23.86359 -50.37180 39914 ft 448 kts 254°
2026-04-18 03:40 -23.88078 -50.43726 39917 ft 448 kts 254°
2026-04-18 03:41 -23.89796 -50.50275 39915 ft 449 kts 254°
2026-04-18 03:41 -23.91514 -50.56836 39914 ft 449 kts 254°
2026-04-18 03:42 -23.93229 -50.63404 39919 ft 449 kts 254°
2026-04-18 03:42 -23.94934 -50.69966 39921 ft 449 kts 254°
2026-04-18 03:43 -23.96629 -50.76512 39923 ft 449 kts 254°
2026-04-18 03:43 -23.98336 -50.83111 39922 ft 449 kts 254°
2026-04-18 03:44 -24.00037 -50.89697 39922 ft 449 kts 254°
2026-04-18 03:44 -24.01721 -50.96229 39923 ft 449 kts 254°
2026-04-18 03:45 -24.03414 -51.02808 39920 ft 449 kts 254°
2026-04-18 03:45 -24.05104 -51.09389 39918 ft 449 kts 254°
2026-04-18 03:46 -24.06791 -51.15973 39918 ft 449 kts 254°
2026-04-18 03:46 -24.08473 -51.22552 39917 ft 450 kts 254°
2026-04-18 03:47 -24.10156 -51.29135 39911 ft 449 kts 254°
2026-04-18 03:47 -24.11836 -51.35724 39914 ft 448 kts 255°
2026-04-18 03:48 -24.13498 -51.42296 39911 ft 448 kts 255°
2026-04-18 03:48 -24.15162 -51.48881 39912 ft 448 kts 255°
2026-04-18 03:49 -24.16823 -51.55456 39906 ft 448 kts 255°
2026-04-18 03:49 -24.18480 -51.62025 39907 ft 447 kts 255°
2026-04-18 03:50 -24.20133 -51.68597 39905 ft 447 kts 255°
2026-04-18 03:50 -24.21773 -51.75128 39903 ft 447 kts 255°
2026-04-18 03:51 -24.23420 -51.81696 39907 ft 448 kts 255°
2026-04-18 03:51 -24.25067 -51.88279 39905 ft 448 kts 255°
2026-04-18 03:52 -24.26716 -51.94885 39908 ft 448 kts 255°
2026-04-18 03:52 -24.28355 -52.01466 39908 ft 448 kts 255°
2026-04-18 03:53 -24.30001 -52.08068 39906 ft 448 kts 255°
2026-04-18 03:53 -24.31631 -52.14663 39905 ft 448 kts 255°
2026-04-18 03:54 -24.33258 -52.21256 39911 ft 448 kts 255°
2026-04-18 03:54 -24.34887 -52.27865 39910 ft 448 kts 255°
2026-04-18 03:55 -24.36512 -52.34467 39912 ft 449 kts 255°
2026-04-18 03:55 -24.38127 -52.41036 39911 ft 449 kts 255°
2026-04-18 03:56 -24.39752 -52.47664 39906 ft 449 kts 255°
2026-04-18 03:56 -24.41376 -52.54295 39906 ft 450 kts 255°
2026-04-18 03:57 -24.43791 -52.64244 39909 ft 450 kts 255°
2026-04-18 03:58 -24.45401 -52.70886 39898 ft 450 kts 255°
2026-04-18 03:58 -24.46965 -52.77538 39897 ft 450 kts 256°
2026-04-18 03:59 -24.48429 -52.84209 39897 ft 450 kts 256°
2026-04-18 03:59 -24.49878 -52.90836 39898 ft 449 kts 256°
2026-04-18 04:00 -24.51352 -52.97515 39902 ft 449 kts 256°
2026-04-18 04:00 -24.52826 -53.04177 39904 ft 449 kts 256°
2026-04-18 04:01 -24.54299 -53.10837 39902 ft 448 kts 256°
2026-04-18 04:01 -24.55766 -53.17493 39903 ft 448 kts 256°
2026-04-18 04:02 -24.57228 -53.24143 39902 ft 448 kts 256°
2026-04-18 04:02 -24.58690 -53.30807 39900 ft 448 kts 256°
2026-04-18 04:03 -24.60147 -53.37458 39902 ft 448 kts 256°
2026-04-18 04:03 -24.61602 -53.44116 39903 ft 448 kts 256°
2026-04-18 04:04 -24.63054 -53.50781 39907 ft 448 kts 256°
2026-04-18 04:04 -24.64501 -53.57437 39906 ft 448 kts 256°
2026-04-18 04:05 -24.65950 -53.64112 39905 ft 448 kts 256°
2026-04-18 04:05 -24.67383 -53.70731 39905 ft 448 kts 256°
2026-04-18 04:06 -24.68832 -53.77443 39905 ft 448 kts 256°
2026-04-18 04:06 -24.70258 -53.84059 39906 ft 448 kts 256°
2026-04-18 04:07 -24.71691 -53.90724 39906 ft 448 kts 256°
2026-04-18 04:07 -24.73119 -53.97385 39903 ft 448 kts 256°
2026-04-18 04:08 -24.74546 -54.04051 39903 ft 447 kts 255°
2026-04-18 04:08 -24.75965 -54.10697 39902 ft 446 kts 255°
2026-04-18 04:09 -24.77381 -54.17339 39896 ft 446 kts 255°
2026-04-18 04:09 -24.78795 -54.23989 39898 ft 446 kts 256°
2026-04-18 04:10 -24.80198 -54.30609 39895 ft 444 kts 255°
2026-04-18 04:10 -24.81600 -54.37233 39895 ft 443 kts 255°
2026-04-18 04:11 -24.83000 -54.43835 39894 ft 443 kts 255°
2026-04-18 04:11 -24.84400 -54.50440 39895 ft 443 kts 255°
2026-04-18 04:12 -24.85784 -54.56995 39892 ft 442 kts 255°
2026-04-18 04:12 -24.87172 -54.63580 39893 ft 441 kts 255°
2026-04-18 04:13 -24.88559 -54.70171 39894 ft 441 kts 255°
2026-04-18 04:13 -24.89929 -54.76697 39897 ft 441 kts 255°
2026-04-18 04:14 -24.91312 -54.83300 39895 ft 441 kts 255°
2026-04-18 04:14 -24.92686 -54.89878 39897 ft 440 kts 255°
2026-04-18 04:15 -24.93920 -54.96473 39901 ft 441 kts 260°
2026-04-18 04:15 -24.94553 -55.02063 39901 ft 441 kts 260°
2026-04-18 04:16 -24.95359 -55.08770 39898 ft 441 kts 260°
2026-04-18 04:16 -24.96196 -55.15464 39897 ft 441 kts 260°
2026-04-18 04:17 -24.97040 -55.22150 39897 ft 441 kts 260°
2026-04-18 04:17 -24.97885 -55.28845 39897 ft 440 kts 260°
2026-04-18 04:18 -24.98727 -55.35531 39897 ft 441 kts 259°
2026-04-18 04:18 -24.99570 -55.42239 39899 ft 442 kts 260°
2026-04-18 04:19 -25.00410 -55.48957 39898 ft 442 kts 260°
2026-04-18 04:19 -25.01246 -55.55671 39897 ft 442 kts 260°
2026-04-18 04:20 -25.02080 -55.62385 39921 ft 442 kts 260°
2026-04-18 04:20 -25.02909 -55.69093 39927 ft 442 kts 260°
2026-04-18 04:21 -25.03736 -55.75796 39930 ft 442 kts 260°
2026-04-18 04:21 -25.04561 -55.82525 39930 ft 441 kts 260°
2026-04-18 04:21 -25.04970 -55.85876 39781 ft 444 kts 260°
2026-04-18 04:22 -25.05377 -55.89219 39484 ft 430 kts 259°
2026-04-18 04:22 -25.05768 -55.92446 38695 ft 420 kts 259°
2026-04-18 04:22 -25.06152 -55.95604 37499 ft 416 kts 259°
2026-04-18 04:22 -25.06541 -55.98781 35965 ft 420 kts 259°
2026-04-18 04:23 -25.06930 -56.01972 34329 ft 429 kts 260°
2026-04-18 04:23 -25.07342 -56.05315 32471 ft 438 kts 259°
2026-04-18 04:23 -25.07749 -56.08659 30704 ft 445 kts 259°
2026-04-18 04:23 -25.08154 -56.12015 28896 ft 451 kts 259°
2026-04-18 04:24 -25.08564 -56.15444 27344 ft 449 kts 259°
2026-04-18 04:24 -25.08973 -56.18882 26028 ft 441 kts 260°
2026-04-18 04:24 -25.09370 -56.22213 24773 ft 433 kts 260°
2026-04-18 04:24 -25.09759 -56.25476 23576 ft 426 kts 260°
2026-04-18 04:25 -25.10142 -56.28678 22587 ft 426 kts 261°
2026-04-18 04:25 -25.10527 -56.31910 22240 ft 415 kts 261°
2026-04-18 04:25 -25.10897 -56.35035 21691 ft 407 kts 261°
2026-04-18 04:25 -25.11258 -56.38079 21069 ft 403 kts 261°
2026-04-18 04:26 -25.11620 -56.41127 20419 ft 399 kts 261°
2026-04-18 04:26 -25.11978 -56.44148 19757 ft 396 kts 261°
2026-04-18 04:26 -25.12334 -56.47163 19100 ft 394 kts 261°
2026-04-18 04:26 -25.12686 -56.50149 18433 ft 392 kts 261°
2026-04-18 04:27 -25.13037 -56.53125 17709 ft 391 kts 261°
2026-04-18 04:27 -25.13386 -56.56092 17008 ft 388 kts 261°
2026-04-18 04:27 -25.13729 -56.59030 16332 ft 384 kts 261°
2026-04-18 04:27 -25.13871 -56.61959 15692 ft 382 kts 270°
2026-04-18 04:28 -25.13709 -56.64892 15027 ft 381 kts 272°
2026-04-18 04:28 -25.13501 -56.67788 14340 ft 379 kts 273°
2026-04-18 04:28 -25.13293 -56.70694 13671 ft 377 kts 273°
2026-04-18 04:28 -25.13090 -56.73563 12950 ft 375 kts 273°
2026-04-18 04:29 -25.12890 -56.76420 12271 ft 371 kts 273°
2026-04-18 04:29 -25.12691 -56.79252 11598 ft 368 kts 273°
2026-04-18 04:29 -25.12500 -56.82013 11142 ft 359 kts 273°
2026-04-18 04:29 -25.12312 -56.84680 11002 ft 341 kts 274°
2026-04-18 04:30 -25.12131 -56.87233 10871 ft 324 kts 274°
2026-04-18 04:30 -25.11962 -56.89652 10762 ft 309 kts 274°
2026-04-18 04:30 -25.11800 -56.91965 10618 ft 295 kts 274°
2026-04-18 04:30 -25.11644 -56.94164 10504 ft 282 kts 274°
2026-04-18 04:31 -25.11494 -56.96275 10371 ft 269 kts 274°
2026-04-18 04:31 -25.11350 -56.98305 10184 ft 265 kts 274°
2026-04-18 04:31 -25.11207 -57.00334 9862 ft 263 kts 274°
2026-04-18 04:31 -25.11063 -57.02367 9533 ft 274 kts 274°
2026-04-18 04:32 -25.10911 -57.04509 9378 ft 281 kts 274°
2026-04-18 04:32 -25.10758 -57.06646 9020 ft 279 kts 274°
2026-04-18 04:32 -25.10605 -57.08788 8474 ft 282 kts 274°
2026-04-18 04:32 -25.10451 -57.10942 8042 ft 280 kts 274°
2026-04-18 04:33 -25.10297 -57.13079 7684 ft 279 kts 274°
2026-04-18 04:33 -25.10145 -57.15192 7328 ft 279 kts 274°
2026-04-18 04:33 -25.09991 -57.17328 6978 ft 278 kts 274°
2026-04-18 04:33 -25.09838 -57.19448 6633 ft 278 kts 274°
2026-04-18 04:34 -25.09684 -57.21571 6287 ft 277 kts 274°
2026-04-18 04:34 -25.09531 -57.23685 5927 ft 277 kts 274°
2026-04-18 04:34 -25.09378 -57.25797 5584 ft 276 kts 274°
2026-04-18 04:34 -25.09224 -57.27910 5253 ft 275 kts 274°
2026-04-18 04:35 -25.09071 -57.30013 4922 ft 275 kts 274°
2026-04-18 04:35 -25.08917 -57.32108 4591 ft 274 kts 274°
2026-04-18 04:35 -25.08761 -57.34208 4262 ft 274 kts 275°
2026-04-18 04:35 -25.08464 -57.36284 3966 ft 273 kts 282°
2026-04-18 04:36 -25.08058 -57.38327 3680 ft 273 kts 282°
2026-04-18 04:36 -25.07643 -57.40368 3391 ft 271 kts 282°
2026-04-18 04:36 -25.07237 -57.42348 3286 ft 257 kts 285°
2026-04-18 04:36 -25.06873 -57.44214 3194 ft 242 kts 279°
2026-04-18 04:37 -25.07050 -57.45979 3101 ft 226 kts 245°
2026-04-18 04:37 -25.07987 -57.47272 3012 ft 210 kts 217°
2026-04-18 04:37 -25.09192 -57.48081 2930 ft 200 kts 204°
2026-04-18 04:37 -25.10506 -57.48565 2691 ft 198 kts 189°
2026-04-18 04:38 -25.11843 -57.48856 2400 ft 198 kts 191°
2026-04-18 04:38 -25.13168 -57.49226 2126 ft 195 kts 193°
2026-04-18 04:38 -25.14451 -57.49576 1902 ft 185 kts 190°
2026-04-18 04:38 -25.15652 -57.49875 1675 ft 174 kts 190°
2026-04-18 04:39 -25.16791 -57.50154 1428 ft 162 kts 190°
2026-04-18 04:39 -25.17839 -57.50412 1223 ft 147 kts 190°
2026-04-18 04:39 -25.18798 -57.50648 1045 ft 138 kts 191°
2026-04-18 04:39 -25.19706 -57.50877 902 ft 135 kts 193°
2026-04-18 04:40 -25.20630 -57.51107 676 ft 136 kts 190°
2026-04-18 04:40 -25.21556 -57.51296 467 ft 135 kts 191°
2026-04-18 04:40 -25.22458 -57.51530 348 ft 136 kts 195°
2026-04-18 04:40 -25.23360 -57.51756 279 ft 128 kts 193°
2026-04-18 04:41 -25.24114 -57.51942 289 ft 82 kts 192°
2026-04-18 04:41 -25.24530 -57.52042 296 ft 57 kts 192°
2026-04-18 04:41 -25.24903 -57.52132 293 ft 53 kts 192°
2026-04-18 04:41 -25.25217 -57.52208 295 ft 28 kts 193°
2026-04-18 04:42 -25.25380 -57.52246 297 ft 20 kts 184°
2026-04-18 04:42 -25.25471 -57.52159 293 ft 20 kts 110°
2026-04-18 04:42 -25.25420 -57.52045 286 ft 19 kts 22°
2026-04-18 04:42 -25.25291 -57.52008 286 ft 20 kts 10°
2026-04-18 04:43 -25.25150 -57.51976 285 ft 21 kts 12°
2026-04-18 04:43 -25.25002 -57.51940 285 ft 23 kts 12°
2026-04-18 04:43 -25.24840 -57.51900 285 ft 24 kts 12°
2026-04-18 04:43 -25.24676 -57.51861 285 ft 21 kts 13°
2026-04-18 04:44 -25.24541 -57.51828 285 ft 21 kts 12°
2026-04-18 04:44 -25.24408 -57.51767 287 ft 21 kts 44°
2026-04-18 04:44 -25.24336 -57.51657 285 ft 12 kts 57°
2026-04-18 04:44 -25.24277 -57.51591 285 ft 13 kts 51°
2026-04-18 04:45 -25.24263 -57.51572 285 ft 0 kts 50°